RH
77 77 76 75 75 75 75 73 73 73 74 75 75 76 77 79 80 82 83 83 84 84 84 84 83 81 80 79 77 76 75 74 75 78 82 86 89 92 93 94 95 95 95 94 94 94 95 96 96 96 96 95 94 93 93 95 96 96 97 96 96 97 96 95 95 96 97 98 98 98 98 98 98 99 99 100 100 100 100 99 98 96 94 95 96 97
78 77 77 75 75 75 76 74 74 74 75 76 77 79 80 81 82 83 84 84 84 85 85 85 84 83 81 80 79 77 76 75 76 79 83 86 89 91 93 94 94 94 95 94 94 94 95 96 96 96 96 96 96 95 94 94 94 95 97 97 97 96 96 96 95 95 96 97 97 98 98 98 97 98 98 98 99 100 100 100 100 100 99 99 98 97
80 79 78 77 77 78 78 76 75 75 76 78 80 81 82 83 84 85 85 85 85 85 85 85 85 84 83 82 81 80 78 77 78 80 84 86 88 90 92 94 94 94 94 94 94 94 95 96 96 96 96 96 96 96 95 95 94 94 95 97 97 97 97 96 95 95 95 96 96 97 97 97 97 97 97 98 98 98 99 99 99 99 99 99 98 98
85 83 82 82 82 82 81 80 79 79 80 81 82 83 84 85 86 87 88 88 87 87 86 85 85 85 85 85 84 82 81 81 82 84 86 88 89 90 92 93 94 94 94 94 94 94 94 95 96 96 97 97 96 96 95 95 94 93 93 95 97 98 97 96 96 95 95 95 96 96 96 96 96 96 97 98 98 98 98 98 98 98 98 98 98 97
91 89 88 87 86 86 85 84 84 85 85 85 86 86 86 86 87 88 89 89 89 88 87 86 86 86 86 86 85 85 84 84 85 86 88 89 89 91 92 93 93 93 93 93 94 94 94 95 95 96 97 97 97 96 96 95 94 93 91 93 96 97 98 98 97 96 96 95 95 95 95 95 95 95 96 97 98 98 98 98 97 97 96 95 95 95
94 92 92 92 91 90 89 89 90 90 90 89 89 89 89 89 88 88 88 88 88 88 88 87 86 86 86 86 86 85 85 85 86 87 88 89 90 90 92 92 93 92 92 93 93 94 94 95 95 95 96 97 97 97 97 96 96 94 92 94 95 97 98 98 98 98 97 97 96 95 94 92 91 91 92 94 96 96 97 97 96 94 93 92 92 92
95 95 94 94 94 94 93 93 92 92 93 93 92 91 91 90 89 88 87 87 87 88 89 88 88 88 87 87 86 85 84 84 85 85 86 87 87 88 88 90 90 91 92 93 93 94 94 95 95 95 96 96 97 97 97 97 97 96 95 95 96 96 96 97 98 99 99 98 97 96 94 92 90 89 90 91 92 93 94 94 93 91 89 90 92 94
97 96 96 96 96 96 96 95 94 93 94 94 93 92 91 91 90 90 89 89 90 90 91 91 91 91 91 88 87 86 85 84 83 83 83 83 83 83 83 84 85 87 89 91 92 94 94 95 95 95 95 96 96 97 97 97 97 97 97 97 97 96 96 96 96 97 98 99 99 98 98 97 96 95 96 95 94 94 94 93 92 90 90 92 94 96
97 97 97 97 97 97 97 96 95 95 95 95 95 94 93 93 93 93 93 93 93 93 93 93 93 93 92 90 88 86 85 83 82 81 80 80 80 79 79 80 81 82 85 86 89 92 93 94 95 95 96 96 96 96 97 97 97 97 97 97 97 97 97 96 95 96 97 98 98 99 99 99 99 99 99 99 98 98 98 97 95 94 94 95 96 97
98 98 98 98 97 97 97 97 96 95 95 96 96 95 95 95 95 95 94 94 94 94 95 94 94 93 92 90 89 88 86 84 82 80 79 80 80 80 80 80 80 81 82 84 87 90 92 93 93 95 95 95 96 96 96 97 97 97 97 97 97 97 97 97 96 95 95 96 97 98 98 98 98 98 98 99 99 99 99 99 98 98 97 96 96 96
98 98 98 98 98 97 98 97 96 95 96 96 97 97 96 96 96 96 95 95 94 94 94 94 94 94 93 92 91 90 89 86 84 81 80 79 80 80 81 81 81 81 82 84 87 90 91 91 92 93 93 94 95 95 96 96 96 97 97 97 97 97 97 97 97 96 95 95 96 97 97 97 97 97 97 97 98 98 99 99 99 98 98 96 96 95
98 98 98 98 98 97 97 97 97 96 97 97 97 97 97 96 96 96 96 96 95 94 93 93 94 94 94 93 92 91 90 89 86 84 82 81 81 81 82 83 83 83 83 85 86 88 88 87 87 88 89 91 92 94 95 95 96 96 97 97 97 97 97 97 97 97 97 96 96 96 96 96 96 95 95 96 96 97 97 97 98 98 98 97 96 94
97 98 98 98 98 98 98 97 97 97 97 97 97 97 97 96 96 97 97 95 95 94 94 94 94 93 93 93 93 92 91 90 88 87 85 84 84 84 84 85 84 84 84 85 85 85 85 85 85 84 83 85 86 88 92 94 95 96 97 97 97 97 97 97 97 97 98 97 97 96 95 95 95 94 95 95 95 96 96 96 96 97 97 96 96 94
98 98 98 98 98 98 98 98 97 97 97 97 97 97 96 96 96 97 96 96 95 95 95 95 94 93 93 92 92 92 91 90 89 89 88 86 85 85 86 86 85 85 85 85 84 83 83 85 86 85 83 82 82 83 86 90 93 95 96 96 97 97 97 97 97 97 97 98 98 97 97 96 95 95 94 95 96 96 96 95 96 96 96 96 95 94
98 98 97 98 98 98 98 97 97 97 97 96 96 96 96 96 96 96 96 96 96 95 96 96 95 94 93 92 91 91 90 90 90 89 88 87 86 85 86 87 86 85 85 85 83 81 81 85 86 86 85 84 82 81 82 85 89 93 95 96 96 96 96 96 97 97 97 97 97 98 98 97 96 96 95 96 96 96 96 96 96 96 96 95 94 93
98 97 97 97 97 97 97 97 97 96 96 96 96 96 97 96 96 96 96 96 96 96 96 96 96 95 94 93 91 90 90 90 90 89 88 87 85 84 86 88 88 86 85 84 82 80 80 82 83 84 84 83 83 82 83 84 87 89 93 95 95 95 95 96 96 97 97 97 97 97 97 97 97 97 97 97 97 97 97 96 96 96 95 95 94 92
98 98 97 97 97 97 97 97 97 97 96 96 97 97 97 96 96 96 96 96 96 96 96 96 96 95 95 93 92 91 90 90 89 89 88 87 85 83 85 88 89 87 85 83 82 81 81 81 81 80 79 79 80 81 83 86 88 90 92 94 95 95 96 95 96 96 96 97 97 97 97 97 96 96 96 97 97 97 97 97 97 96 95 95 93 91
98 98 98 98 97 97 97 97 97 97 97 97 96 96 96 96 96 96 96 96 96 96 96 96 96 95 94 93 92 91 90 90 90 90 91 89 86 85 86 89 90 89 87 85 83 82 81 81 79 77 76 75 76 78 82 85 87 90 92 94 94 95 95 95 96 96 96 96 97 97 98 97 96 95 95 96 97 97 97 97 97 96 95 96 94 92
98 98 97 98 97 97 97 97 97 97 97 97 96 96 96 96 96 96 96 96 96 96 96 96 96 95 95 93 91 89 90 91 92 93 94 92 90 88 88 91 92 91 90 87 85 83 82 81 79 76 75 74 74 76 79 81 83 86 89 92 93 94 94 94 95 95 95 95 96 96 97 97 97 96 95 96 96 97 97 97 96 96 95 95 94 93
98 98 98 97 97 97 97 97 97 96 96 96 96 96 96 96 96 96 96 95 95 96 96 96 95 95 94 94 92 91 91 92 93 93 94 93 92 91 90 92 93 93 92 89 86 84 84 83 80 78 75 74 74 75 76 78 79 81 85 88 91 93 94 94 94 94 93 92 93 95 96 96 97 97 97 97 97 97 97 96 96 96 95 94 93 92
96 97 98 98 97 97 97 96 95 96 96 96 96 96 96 96 96 96 96 95 95 96 96 95 95 94 95 94 93 93 92 93 93 93 94 94 93 92 92 93 93 93 93 90 87 86 87 85 83 80 77 76 75 76 76 77 78 79 81 84 87 90 92 93 94 94 92 90 91 93 95 95 95 96 97 97 97 97 97 96 96 95 95 94 91 89
96 96 96 96 96 97 97 97 97 97 97 97 97 96 96 96 96 96 95 96 96 96 96 95 95 94 95 95 94 94 94 94 94 94 94 94 94 93 93 93 93 93 92 91 90 89 89 88 86 83 80 78 78 77 77 77 78 78 79 81 83 86 88 91 93 93 92 89 91 94 96 95 95 95 96 96 97 97 96 96 95 95 95 93 89 86
92 90 89 91 93 95 96 97 97 97 97 97 97 96 96 96 96 95 95 96 96 96 95 95 95 95 95 95 95 94 94 94 94 94 94 94 94 93 93 94 94 93 92 92 92 91 91 90 89 87 84 82 80 79 79 79 79 79 79 81 82 84 86 89 91 92 92 90 92 95 96 95 95 95 95 96 96 96 96 96 95 94 93 90 86 85
87 86 85 85 87 90 91 93 94 95 95 96 96 96 95 95 96 96 96 96 96 95 95 95 95 95 95 95 95 94 94 94 95 95 94 94 94 94 93 94 94 94 93 92 92 92 92 91 90 90 87 84 82 80 80 80 80 81 82 84 85 86 87 88 90 91 91 92 93 95 96 96 96 95 95 95 96 96 96 96 96 95 94 91 87 86
90 89 88 87 87 87 88 89 90 91 92 92 91 90 90 92 94 95 96 96 95 95 95 95 95 95 95 95 95 95 94 94 94 95 94 94 94 94 94 94 94 94 93 92 92 93 93 92 91 91 89 85 82 80 80 80 80 81 83 85 87 89 89 89 90 90 91 92 93 95 96 96 96 96 95 95 95 96 96 96 96 95 95 94 92 91
94 94 93 92 91 91 91 92 93 93 93 92 90 89 89 91 93 95 95 95 95 95 95 94 94 95 95 95 95 95 94 94 95 94 94 94 94 94 93 93 94 94 94 93 93 93 93 92 91 91 89 86 83 81 80 80 80 81 82 85 87 89 89 89 89 89 90 91 93 94 95 95 95 95 95 95 95 96 96 95 95 95 96 95 94 94
97 96 96 96 95 95 94 95 96 96 95 95 95 94 93 94 95 95 95 95 96 95 94 95 95 95 95 95 95 95 95 95 95 95 94 94 94 94 93 93 93 94 94 93 93 93 93 92 92 91 90 87 85 82 80 79 79 79 81 84 87 89 90 90 90 90 89 89 91 93 94 95 95 95 95 95 95 95 95 95 95 95 95 95 94 93
96 96 96 95 95 94 94 95 96 96 96 96 96 96 96 96 95 95 95 95 95 95 94 95 95 96 95 95 94 94 94 94 95 95 95 94 94 94 94 93 93 93 94 93 93 93 93 93 92 91 90 87 85 83 80 78 78 79 79 82 85 89 91 91 91 91 90 89 89 90 92 93 94 94 95 95 95 95 95 95 95 94 94 93 91 88
93 92 91 91 91 91 91 93 94 95 96 95 95 95 94 95 96 96 95 94 94 95 95 95 96 96 95 95 95 94 94 94 94 94 95 94 94 94 93 93 94 94 94 94 93 93 93 92 91 89 87 86 86 85 82 80 79 78 78 80 83 86 89 91 92 92 92 91 91 91 91 92 92 93 93 94 94 94 94 94 94 94 93 89 85 81
90 89 87 86 86 87 89 91 92 92 93 94 94 94 92 94 95 96 96 95 96 96 96 96 96 95 96 95 95 94 94 93 93 93 94 94 93 93 93 94 94 94 94 93 93 93 93 92 90 88 85 86 86 86 85 83 80 78 77 77 79 82 85 87 90 92 92 93 93 93 91 91 91 91 91 91 92 92 93 93 93 92 90 85 83 84
94 93 91 88 86 85 87 89 90 90 91 91 93 93 94 94 95 96 96 96 96 96 96 96 96 96 96 95 95 94 94 92 92 92 93 93 93 93 94 94 94 94 93 93 93 93 93 91 90 88 87 88 88 88 88 87 85 81 78 77 77 78 80 84 86 89 91 92 93 93 93 92 92 92 90 89 88 88 88 89 90 90 88 87 88 90
97 96 96 93 92 90 89 89 90 90 90 91 91 92 92 93 94 96 97 96 96 96 96 96 96 96 95 95 95 94 93 92 91 91 92 91 91 92 93 93 93 93 93 93 93 93 93 92 90 89 89 90 90 90 90 90 89 86 82 79 76 75 76 80 83 86 89 90 92 93 93 93 93 93 93 91 89 88 87 88 90 90 90 91 92 93
97 97 97 97 96 96 94 93 92 91 90 90 89 88 87 89 91 94 96 97 97 97 97 96 96 96 95 95 95 95 94 92 92 92 92 90 90 91 92 92 93 93 93 93 93 93 93 92 91 90 90 90 91 90 90 91 91 90 87 83 79 76 75 77 80 84 87 89 91 92 93 93 93 93 93 93 92 92 91 91 92 92 93 93 94 95
97 97 97 97 97 97 97 96 95 94 92 90 87 85 84 85 88 91 94 96 96 97 97 97 97 96 96 95 95 95 95 93 92 92 93 91 90 90 92 92 93 94 94 93 93 93 93 93 92 92 91 91 91 91 90 91 92 92 90 86 83 79 77 77 79 82 85 88 90 91 91 90 92 93 93 93 93 94 94 93 93 93 94 94 95 95
89 89 91 95 97 98 98 97 96 95 94 92 88 86 85 85 86 87 90 92 93 94 94 95 96 96 96 96 96 96 95 94 93 93 94 93 91 91 92 93 93 94 94 94 94 94 94 93 93 93 93 92 91 92 92 92 92 92 91 89 86 83 80 80 80 82 84 87 90 91 91 90 91 93 94 94 94 94 94 94 94 94 94 95 95 95
86 83 82 88 94 98 98 97 97 96 95 94 92 90 88 88 87 87 87 89 90 91 92 92 94 95 96 96 96 96 95 94 94 94 94 94 93 93 93 93 93 94 94 94 94 94 94 94 93 93 93 93 92 92 92 93 93 92 92 91 89 86 83 82 82 83 84 87 90 92 93 92 92 93 94 94 94 94 94 94 94 94 94 94 94 94
93 90 85 85 90 95 97 97 97 97 96 95 94 93 91 90 89 88 88 88 89 90 91 92 93 95 96 96 96 96 95 95 95 95 94 94 94 93 93 93 93 93 94 93 94 94 94 93 93 93 93 93 93 92 92 93 93 93 93 92 91 89 86 85 84 84 84 86 90 93 94 93 92 92 93 93 94 94 94 94 94 94 93 94 94 93
97 97 95 92 93 95 97 97 97 97 96 95 94 94 93 92 91 90 89 89 89 90 91 93 93 94 95 95 96 95 95 95 95 95 95 95 94 94 94 94 93 93 93 93 93 93 94 93 93 93 94 93 92 91 91 93 93 93 93 93 92 90 88 87 86 85 85 86 89 92 94 93 92 91 91 91 92 93 94 93 93 93 92 93 93 92
98 98 98 97 97 97 97 97 97 97 96 95 94 94 93 93 92 92 92 91 91 90 90 91 93 94 95 95 95 95 95 95 95 95 95 95 95 95 95 94 94 94 94 93 93 93 94 93 93 93 93 93 92 91 91 92 93 93 93 93 93 92 91 89 88 87 86 86 88 90 93 93 93 92 90 90 90 91 92 92 93 92 92 92 92 92
98 98 98 98 98 98 98 97 97 97 97 96 96 95 95 95 94 94 94 93 92 90 89 90 92 93 94 95 95 95 95 95 95 95 95 95 95 95 95 95 95 94 94 94 94 94 94 93 93 93 93 93 93 93 92 92 93 93 93 93 93 93 93 90 89 88 87 87 87 89 90 92 92 93 92 91 90 89 90 90 91 91 92 92 93 93
97 96 96 96 97 97 97 97 97 97 97 97 96 96 96 96 96 95 95 94 93 92 91 91 92 94 94 95 95 94 94 94 94 95 95 95 95 95 94 95 95 94 94 94 94 94 94 94 94 94 93 93 93 93 93 92 92 92 93 93 93 92 92 91 90 89 88 88 87 87 88 89 90 91 91 91 90 88 88 88 88 89 90 91 93 94
96 96 96 96 96 97 97 97 97 97 97 97 97 96 96 96 96 96 96 95 95 94 93 93 94 94 94 95 94 94 93 93 93 94 94 94 94 94 94 94 94 94 94 94 94 94 94 94 94 94 94 94 93 93 93 92 91 92 93 93 93 93 93 93 92 90 89 89 89 88 88 89 89 88 88 88 87 86 85 84 83 83 84 85 87 88
96 96 96 96 96 96 96 96 96 97 97 97 97 96 96 96 96 96 96 96 95 95 94 94 94 94 95 95 95 94 93 92 92 93 94 94 94 94 94 94 94 94 93 93 93 93 94 94 94 94 93 94 94 94 93 92 92 92 93 94 93 93 93 93 92 91 89 89 89 89 89 88 87 85 85 84 83 81 80 79 78 77 77 77 78 80
95 95 94 93 93 94 95 95 96 96 96 96 96 96 96 96 96 95 96 96 96 95 95 95 94 94 94 94 95 94 94 93 92 92 92 92 92 92 93 93 94 94 93 93 93 93 94 94 94 94 94 94 94 94 93 93 93 93 93 93 93 94 94 93 93 92 90 89 88 89 89 89 88 86 85 84 83 81 79 76 75 74 76 76 76 76
93 93 92 90 90 90 91 93 94 95 96 96 96 96 96 96 95 95 95 95 95 95 95 95 94 94 94 94 94 94 94 94 93 92 91 91 90 90 90 91 92 93 93 93 94 93 93 93 93 94 94 94 94 94 93 93 93 93 93 93 93 94 94 93 93 93 92 89 88 87 87 89 90 91 91 89 87 85 82 79 78 77 78 80 80 80
94 93 93 92 91 90 89 89 91 92 93 94 94 95 95 95 95 95 96 95 95 95 95 95 94 94 94 94 94 94 94 94 94 93 92 90 89 88 88 88 89 91 92 93 93 93 93 94 94 93 93 93 93 94 93 93 93 93 92 92 92 93 94 94 94 93 93 91 88 86 86 89 91 93 93 92 91 88 85 84 82 81 81 82 82 82
95 94 94 94 94 93 92 91 91 92 93 93 93 94 95 95 95 95 95 95 95 95 95 94 94 94 94 94 94 94 94 94 94 94 94 92 90 89 87 87 87 87 89 90 91 92 93 93 93 93 93 93 93 93 93 92 93 93 92 91 92 92 93 94 94 94 93 92 90 89 88 90 92 93 93 93 92 91 89 87 86 84 83 83 82 82
94 94 94 94 94 94 94 93 93 94 94 94 93 94 95 95 95 95 95 95 95 95 94 94 94 94 94 94 94 94 94 94 94 94 94 93 92 91 89 88 87 87 88 89 91 92 93 93 93 93 92 93 93 93 93 93 93 93 92 92 92 92 93 94 94 94 94 93 92 91 90 91 92 92 92 93 93 93 92 90 88 86 85 84 83 83
93 93 93 94 94 94 94 94 93 93 94 94 93 93 93 94 95 95 96 95 95 95 94 94 94 94 94 94 94 94 94 94 94 94 94 94 93 93 91 90 90 90 91 91 92 93 93 93 93 93 93 93 93 93 93 93 93 93 93 93 93 93 93 93 94 94 93 94 93 93 92 92 91 91 91 93 93 93 93 91 90 87 86 85 85 84
93 93 93 93 93 94 94 94 94 94 94 94 93 93 93 94 94 95 95 95 95 95 95 95 95 94 94 94 94 94 94 94 94 94 94 94 94 94 93 93 92 92 93 92 92 92 92 92 92 91 92 92 92 93 93 93 93 93 93 94 94 93 93 93 93 93 93 93 94 93 93 93 92 92 92 93 93 93 93 93 92 90 88 87 86 86
92 92 91 92 92 93 93 94 94 94 94 94 94 94 94 94 94 94 95 95 95 95 95 95 95 94 94 94 94 94 94 94 94 94 94 94 94 94 94 93 93 93 92 91 90 90 90 91 91 92 91 90 90 90 92 93 93 93 93 94 94 94 94 94 94 93 93 93 93 93 93 93 93 93 93 93 93 93 93 93 92 91 90 89 89 89
Wind_Speed
33 31 30 29 28 28 28 27 26 26 27 27 26 26 27 28 28 27 27 28 29 29 29 30 30 31 32 33 33 33 33 33 33 32 32 32 32 32 32 32 32 32 32 32 32 32 32 32 32 32 33 33 33 34 35 37 38 40 40 40 40 41 42 43 43 43 43 41 40 38 36 35 35 36 35 32 29 27 26 28 32 35 37 37 35 33
32 31 30 30 29 28 28 28 27 26 27 27 26 25 26 27 28 28 27 28 29 29 28 29 30 31 32 33 33 33 33 33 32 32 32 32 32 32 32 32 32 32 32 33 33 32 32 32 32 32 32 33 33 34 35 37 39 41 41 40 39 39 40 41 42 43 43 43 41 40 38 37 37 37 37 35 32 29 27 26 27 29 30 31 31 31
33 33 32 31 29 28 29 30 29 28 28 27 26 26 26 27 28 28 28 28 29 29 28 29 29 30 31 32 32 33 33 33 33 32 32 31 31 32 32 32 32 32 32 33 33 33 32 32 32 32 33 33 34 34 35 36 39 41 43 42 40 39 39 40 41 42 43 43 43 42 40 39 39 39 39 38 36 34 32 30 29 29 28 29 29 29
35 34 34 32 30 29 30 31 30 29 28 28 29 29 28 28 28 29 29 29 30 30 29 29 30 31 31 32 32 32 33 33 32 32 31 31 31 31 31 32 32 32 32 33 33 33 33 32 32 32 33 33 34 35 35 36 38 41 43 43 41 40 39 40 41 42 43 43 43 42 42 41 41 41 40 39 37 36 35 34 34 33 32 31 30 30
35 33 33 32 31 31 31 31 30 29 29 29 31 31 31 30 30 30 30 30 31 31 31 31 31 31 31 31 31 32 32 32 31 31 31 31 31 31 31 31 32 32 32 33 33 33 33 33 33 32 33 33 34 34 35 36 38 40 42 42 42 40 40 40 40 41 42 43 43 43 42 42 42 42 41 40 39 37 37 36 35 35 35 34 33 33
36 34 32 31 31 31 31 30 29 27 29 29 30 30 30 30 31 31 32 32 32 33 32 32 32 32 31 31 32 32 32 32 32 31 32 32 32 32 31 31 32 32 32 33 33 33 34 34 33 33 33 33 33 34 35 36 37 39 41 42 41 41 41 40 41 41 41 42 43 43 43 44 44 44 43 42 41 40 39 38 37 37 37 36 36 35
37 35 33 31 31 32 32 31 29 28 28 28 29 29 30 31 32 33 34 35 35 35 34 34 34 34 34 33 34 34 33 32 32 32 32 32 32 32 31 31 31 32 32 32 32 33 33 34 34 34 33 33 33 34 34 35 36 38 40 41 41 41 41 41 41 41 41 42 42 43 43 44 44 45 45 44 43 42 41 40 40 39 39 38 37 36
39 37 35 33 33 33 33 32 30 29 28 28 29 30 32 32 32 33 34 35 35 35 35 35 34 34 34 34 33 33 32 32 31 31 32 32 32 32 31 31 31 31 31 31 31 32 33 33 34 34 34 34 34 34 34 35 36 37 39 40 41 41 41 42 42 42 42 41 42 42 42 43 43 43 43 44 43 43 42 42 41 40 40 38 37 36
40 39 37 35 34 33 32 31 31 29 28 29 30 31 31 31 31 30 30 31 32 33 34 34 33 33 33 33 33 32 32 31 31 31 31 32 32 32 32 31 31 30 30 30 30 31 31 32 33 34 34 34 34 34 34 35 36 37 38 39 40 40 41 41 42 43 43 42 42 41 41 41 41 41 41 41 40 40 40 40 40 40 39 39 37 36
40 40 38 37 36 34 33 33 33 32 31 31 33 34 33 33 31 30 30 30 31 31 31 31 32 33 33 33 33 32 32 32 32 32 31 32 32 32 32 32 32 31 31 31 31 31 31 31 32 32 33 34 35 35 35 35 35 36 38 39 40 40 40 40 41 43 43 43 43 42 41 41 40 40 39 38 38 37 37 37 38 38 39 38 37 36
40 39 38 38 37 36 35 36 36 36 35 34 34 35 36 36 34 33 32 32 32 31 31 31 31 31 31 31 31 31 30 31 31 32 32 33 32 32 33 33 33 32 32 31 31 30 30 30 30 31 32 33 34 35 36 36 36 36 37 39 40 40 39 39 40 42 43 44 44 43 42 41 41 40 39 38 37 36 36 36 37 37 38 37 37 36
39 39 38 37 37 36 36 37 37 37 34 33 33 34 35 36 36 35 34 33 33 32 31 30 30 29 29 29 28 28 28 29 30 32 33 33 33 33 33 33 33 32 32 31 30 30 29 29 29 29 30 31 33 35 36 36 36 36 37 38 40 40 40 39 39 40 41 43 44 44 44 43 42 41 40 39 38 37 37 37 37 38 37 37 36 36
38 38 38 37 37 36 35 35 34 33 32 31 32 33 34 35 34 33 33 34 34 33 31 30 30 29 29 28 27 27 27 28 30 31 32 33 33 33 33 33 33 32 32 31 30 29 28 28 27 27 28 29 31 33 35 37 37 37 37 38 39 40 40 39 38 38 39 41 43 44 45 44 44 43 42 41 40 39 39 39 39 39 38 37 36 36
38 37 37 36 36 35 34 33 33 32 31 32 33 33 33 33 32 32 32 34 34 33 32 30 31 31 30 29 28 27 27 28 30 31 32 33 33 33 32 32 33 32 31 30 29 28 27 26 26 26 26 26 28 30 33 35 37 38 38 38 39 40 40 40 39 38 37 38 40 42 44 45 45 44 43 42 41 40 40 41 41 40 39 38 36 36
37 36 35 35 34 34 33 33 33 33 33 34 34 34 33 33 32 32 32 32 33 32 31 30 31 32 31 30 29 28 28 29 31 32 33 33 33 33 32 32 32 31 30 29 29 28 26 25 25 25 25 25 26 27 29 32 35 37 39 39 39 40 40 40 40 39 37 37 38 39 41 43 43 43 43 42 41 41 41 42 42 41 40 38 37 36
37 36 34 34 34 33 32 32 32 34 35 34 33 32 32 32 32 31 31 31 31 30 28 28 28 29 30 30 29 29 29 30 31 32 33 33 33 32 31 30 30 30 30 29 28 28 26 25 25 24 24 24 24 25 26 28 32 35 38 39 40 40 39 39 39 38 37 37 37 38 39 40 41 41 41 41 41 41 42 42 42 41 40 39 37 37
38 37 35 35 35 34 32 32 32 33 34 33 32 31 31 31 32 31 31 30 30 28 27 26 25 25 25 26 27 27 27 27 29 30 31 31 31 30 29 28 29 29 29 29 28 27 27 26 25 24 23 23 22 23 23 25 28 31 35 38 40 40 40 39 39 38 37 37 37 37 38 39 40 40 40 40 41 41 42 42 41 41 40 38 38 38
37 37 36 36 37 36 34 33 33 32 32 32 31 31 31 31 31 31 31 30 29 28 28 26 25 24 23 22 23 24 23 23 24 27 28 29 29 29 28 27 28 28 29 29 29 28 27 26 26 25 23 22 21 21 21 23 25 28 31 35 38 40 41 40 39 38 37 37 37 37 37 38 39 40 41 41 41 41 41 41 40 39 38 38 38 38
33 34 35 35 36 36 35 34 33 32 31 31 30 30 30 31 31 31 31 31 30 30 29 28 27 26 26 25 25 24 22 21 22 24 25 27 28 28 27 27 27 28 29 29 29 29 28 27 27 26 24 23 21 20 20 20 22 24 28 32 36 39 40 40 39 38 38 39 39 38 38 39 41 42 42 42 42 42 41 40 39 38 38 37 37 38
33 32 33 34 35 35 35 35 34 34 33 33 33 33 33 33 32 32 32 31 31 31 31 30 30 29 28 28 27 25 22 21 21 23 25 26 26 27 27 26 27 28 29 30 30 29 29 28 28 27 26 24 23 21 20 19 19 21 24 28 33 37 39 39 38 37 39 41 41 39 37 38 40 42 43 43 43 42 41 40 39 38 37 37 37 38
37 36 34 33 32 32 32 33 34 33 33 33 34 34 34 34 33 33 33 33 33 32 32 31 31 31 30 28 27 25 23 21 21 23 25 26 26 27 27 26 27 27 29 30 30 30 29 29 28 28 27 26 25 23 22 20 19 19 20 23 28 33 37 38 37 37 39 43 43 40 35 35 37 39 41 42 42 41 40 39 39 38 37 38 38 38
37 37 36 35 33 32 32 32 32 31 31 31 32 33 34 34 34 34 34 34 34 34 34 34 33 32 31 29 28 27 24 22 22 23 24 25 26 26 26 26 26 27 28 29 30 29 29 28 28 28 28 27 26 25 24 22 21 20 19 20 23 28 34 37 38 39 40 44 45 41 34 30 31 33 36 38 38 38 38 38 38 37 37 38 38 38
35 35 35 35 35 36 36 35 35 34 33 33 33 33 34 34 34 35 35 35 35 35 34 34 34 32 31 30 29 28 26 25 25 24 24 25 26 27 26 24 24 25 27 28 28 28 27 28 28 29 28 28 27 26 25 24 23 21 20 20 20 23 28 33 37 40 42 45 46 43 36 30 28 29 31 33 34 35 35 36 36 36 37 37 37 37
34 34 34 34 34 34 35 35 35 35 34 34 34 33 33 32 32 33 34 35 35 35 34 33 32 31 30 29 29 28 28 27 26 26 26 27 28 27 25 23 23 24 26 27 27 26 26 27 28 28 29 28 28 27 26 25 24 22 21 20 20 22 24 28 34 39 42 45 46 45 39 33 29 27 28 30 31 32 33 34 34 35 35 35 35 35
35 35 34 33 32 31 31 31 31 31 31 31 31 30 30 30 30 30 30 32 33 34 34 32 30 29 29 28 28 28 28 27 26 26 27 27 27 27 25 23 23 23 25 26 26 25 25 26 27 28 29 29 29 28 27 26 24 23 22 21 21 21 22 25 29 35 40 44 46 45 41 36 32 29 28 29 30 31 32 32 32 33 33 33 33 33
35 35 34 33 32 31 30 29 28 28 28 29 30 30 30 30 29 28 29 31 32 33 33 32 31 29 28 27 26 26 26 26 26 26 27 26 26 26 26 24 23 23 24 25 25 25 25 26 27 28 29 29 29 29 27 26 25 23 22 21 21 21 22 23 25 30 36 42 45 46 43 39 36 32 30 30 30 30 31 31 31 32 32 32 32 33
33 33 33 33 32 31 30 29 29 28 29 29 30 31 31 30 29 29 30 31 32 32 32 32 31 29 28 26 26 25 25 24 24 25 26 26 26 27 26 24 22 22 23 24 24 24 24 25 27 28 28 29 29 29 27 26 24 23 21 20 20 20 21 21 22 25 30 37 43 46 45 43 40 37 34 32 31 32 32 32 32 32 32 32 32 33
31 32 32 32 32 32 31 31 30 30 30 30 30 31 31 30 30 31 32 32 31 30 31 32 31 29 27 26 25 25 24 23 23 24 24 25 26 27 26 24 22 22 22 23 24 24 24 25 26 27 27 28 28 27 26 25 23 21 20 19 19 19 20 20 21 23 25 30 37 42 46 46 45 42 39 37 35 34 34 34 33 33 33 33 34 35
29 30 31 31 32 32 31 31 30 30 30 30 30 30 31 32 33 34 34 32 31 30 30 31 31 29 28 26 25 24 24 23 23 23 23 24 26 27 27 24 23 22 22 22 22 23 24 25 26 26 26 25 25 24 24 22 21 20 19 18 17 17 18 19 21 22 23 25 29 34 40 44 46 46 45 43 41 39 38 37 36 35 36 37 38 39
29 30 31 31 32 32 32 31 31 30 29 28 28 29 30 33 35 36 35 34 32 31 31 31 31 30 29 26 24 24 23 24 23 23 23 24 26 27 26 23 23 22 21 20 20 20 21 22 23 23 22 21 21 21 21 20 20 19 18 17 16 16 16 17 19 21 22 23 25 28 32 36 40 43 45 46 45 44 43 41 40 40 41 42 42 42
29 29 31 32 33 33 33 33 32 31 30 28 27 26 27 31 34 36 36 36 35 34 34 33 32 31 29 26 23 22 22 23 22 22 23 24 26 26 24 23 22 22 22 20 18 17 16 17 18 18 17 17 17 18 18 19 19 19 18 17 16 16 15 15 17 19 21 23 24 26 27 29 31 35 38 41 43 44 44 44 43 43 44 44 43 43
29 29 30 31 32 33 33 33 34 33 32 31 30 28 27 27 29 32 34 36 36 37 36 35 33 31 30 29 27 25 23 23 21 21 22 23 24 25 24 23 22 22 22 22 21 18 16 14 14 14 14 15 16 17 17 18 18 19 19 18 18 16 15 14 15 17 19 21 23 25 26 26 27 29 30 32 34 36 38 39 40 42 43 43 42 41
30 29 29 30 31 32 33 33 34 34 34 33 33 31 30 28 27 28 30 33 35 36 37 37 35 33 30 30 30 29 28 25 23 22 22 23 24 24 23 23 22 22 22 22 22 22 20 19 17 16 15 15 16 17 17 17 18 18 18 18 18 17 16 15 14 15 16 19 21 24 25 26 27 28 29 30 31 32 33 34 36 39 40 40 40 38
30 30 30 29 30 31 32 33 34 34 34 34 33 33 32 30 29 28 28 29 31 33 35 36 37 35 33 31 30 30 30 28 26 24 23 24 25 25 24 23 23 23 22 22 22 22 22 22 21 18 16 16 17 17 17 17 17 17 18 18 18 18 17 16 15 14 15 17 20 22 24 26 27 27 28 29 30 32 33 34 35 36 37 37 36 34
34 34 32 30 30 30 31 32 33 34 34 34 34 34 33 32 30 29 28 28 29 31 32 34 35 36 36 34 33 32 31 31 29 26 25 26 26 26 25 24 23 23 23 22 22 22 21 22 21 20 18 17 17 17 17 17 16 17 18 18 18 18 17 16 15 14 14 15 17 20 23 24 25 26 25 25 26 28 29 31 31 32 32 32 32 31
36 36 35 32 30 29 30 31 32 33 34 34 34 34 34 33 31 30 29 29 29 30 31 31 32 34 35 36 36 36 34 33 30 28 27 27 28 27 27 25 24 23 23 23 23 22 22 21 21 20 19 18 17 16 16 16 16 16 17 18 18 18 17 16 15 14 14 14 16 18 20 22 24 25 24 23 22 23 24 26 27 27 27 27 27 28
34 34 34 32 30 29 30 30 31 32 33 34 34 34 34 33 32 31 30 30 30 30 31 31 31 31 32 33 35 36 35 33 31 29 28 28 29 29 28 28 27 25 24 24 23 23 22 22 21 20 19 18 17 16 15 15 15 16 16 17 17 17 17 16 15 14 14 15 16 18 19 21 23 24 25 24 22 22 22 23 24 25 25 25 25 25
30 30 30 29 29 29 30 31 32 32 33 33 33 34 33 33 32 32 31 30 30 29 29 30 30 30 30 31 32 32 33 33 32 31 30 30 30 30 30 30 28 26 26 25 24 23 23 22 20 19 19 19 18 17 15 15 15 16 16 17 17 17 17 16 15 15 15 16 17 18 19 21 23 24 25 25 24 23 22 22 23 24 25 25 26 26
29 27 26 26 26 27 29 30 31 32 32 32 33 32 32 32 31 31 30 29 28 27 27 28 28 29 29 30 30 30 31 31 32 32 32 32 32 32 31 31 29 28 27 26 25 24 24 23 22 20 19 18 18 17 16 16 16 16 16 17 17 17 17 17 16 15 16 16 18 19 20 21 22 23 24 25 25 24 24 24 25 25 25 26 26 26
32 30 28 27 25 25 25 26 28 29 30 30 30 30 30 30 30 30 30 29 28 27 26 26 26 27 28 28 29 29 29 30 30 31 32 33 33 33 33 32 31 30 28 27 27 26 25 25 24 23 21 20 18 17 16 16 16 16 16 16 17 17 17 17 16 16 16 17 18 20 21 22 22 23 24 25 25 26 25 26 26 26 26 25 25 26
32 32 32 30 28 26 24 23 24 25 26 27 28 28 29 29 29 29 30 29 28 27 26 25 25 26 27 28 28 29 29 29 29 30 31 33 33 34 34 33 32 31 30 28 28 28 27 26 26 25 24 23 21 19 18 17 16 16 17 17 17 17 17 17 17 17 16 17 18 20 21 22 22 23 24 24 25 26 26 27 27 27 27 27 27 27
29 29 29 29 28 27 25 24 23 23 24 25 26 27 28 29 29 29 29 29 29 28 27 26 25 26 27 27 28 29 29 29 29 29 30 31 32 33 33 34 33 32 31 30 29 29 28 27 27 26 26 25 23 21 20 19 18 17 17 18 17 17 17 17 18 17 17 17 18 19 21 22 23 23 24 24 25 26 26 27 27 28 28 28 28 29
28 28 28 28 28 28 28 27 25 24 23 23 25 26 28 29 29 29 30 29 29 29 28 26 26 25 26 27 27 28 28 29 29 29 29 29 30 30 31 31 32 32 32 31 31 30 30 29 28 28 27 25 24 24 22 21 19 18 18 18 18 17 17 18 18 18 18 18 18 19 21 22 23 24 24 24 25 26 26 27 27 28 28 29 29 30
29 30 30 30 30 30 30 29 27 25 24 23 24 25 26 27 28 29 29 30 29 29 28 27 26 25 25 26 27 27 28 28 28 28 28 28 28 28 28 28 28 29 30 31 31 30 30 29 29 29 27 26 26 25 24 22 21 20 19 19 19 19 19 19 19 19 19 18 18 19 20 22 23 24 24 25 25 26 26 27 28 28 28 28 29 30
28 29 29 29 28 28 28 27 26 25 25 24 24 25 26 27 28 29 30 30 29 28 27 26 25 25 25 25 26 26 26 26 27 28 28 27 27 26 26 25 26 26 27 29 30 31 30 30 29 28 27 26 26 26 26 24 23 22 21 20 20 20 20 20 20 20 20 19 19 19 19 21 22 23 24 25 25 26 27 28 28 28 28 27 27 28
24 25 25 25 25 25 25 25 24 24 24 25 25 25 26 27 28 29 29 29 28 28 27 26 25 24 24 24 24 24 24 24 25 26 26 26 26 25 25 24 24 24 25 27 28 29 30 30 30 28 27 26 26 27 27 26 25 24 23 22 21 21 21 20 20 20 20 20 20 19 19 20 21 23 24 25 26 26 27 28 28 28 27 26 26 26
22 22 23 23 24 24 24 23 23 23 23 24 24 25 25 25 26 27 28 28 27 26 25 25 24 24 24 23 23 22 22 22 23 23 24 25 25 25 24 23 23 23 23 24 26 27 28 29 29 29 28 26 25 26 27 27 26 26 25 25 24 23 22 22 21 21 21 21 20 20 19 19 21 23 24 25 25 26 26 26 27 26 26 25 25 25
23 23 24 24 24 24 24 23 23 22 23 23 24 24 23 24 25 26 26 27 26 25 24 24 24 24 24 23 23 23 22 22 22 22 23 24 24 24 23 22 22 21 21 22 23 24 25 26 28 29 29 29 27 26 25 25 26 26 26 26 26 25 24 24 22 22 21 21 21 21 21 21 22 23 23 24 24 25 25 25 25 25 25 25 25 25
24 25 25 25 25 24 24 23 23 23 23 23 23 23 23 23 24 25 25 26 26 25 24 24 24 23 23 23 23 23 22 22 22 22 22 23 23 23 22 22 21 20 21 21 22 23 24 25 26 27 28 29 30 29 27 26 26 26 26 26 26 26 25 25 24 23 22 22 22 22 22 22 22 22 22 23 23 24 24 24 24 25 25 25 25 25
23 24 24 24 24 23 23 23 23 23 23 23 23 23 23 23 24 24 25 25 25 25 25 24 24 23 23 23 23 23 22 22 22 22 22 22 22 22 22 21 20 20 21 22 23 24 25 26 27 27 26 27 29 30 30 29 28 27 26 25 25 25 25 25 24 24 23 23 23 23 23 23 23 23 23 23 23 23 23 24 24 25 25 26 26 26
23 24 24 23 23 23 23 23 23 23 23 23 23 23 24 24 23 23 23 24 25 25 25 24 24 24 23 23 23 23 23 23 23 23 23 22 22 21 21 21 20 20 21 22 23 24 24 25 26 27 28 27 27 28 29 31 30 28 26 25 24 24 24 24 24 24 23 23 23 24 24 24 24 24 25 25 24 24 24 24 25 26 26 26 26 27
Wind_Direction
276 278 279 279 279 280 279 278 277 276 276 274 271 269 267 267 267 267 268 268 268 268 267 267 269 271 273 275 277 279 282 283 283 280 278 276 274 271 270 270 269 268 268 268 268 268 267 265 264 263 261 258 255 250 247 243 238 234 233 234 236 236 236 236 235 235 234 235 236 237 235 232 229 226 225 226 226 224 222 220 221 222 225 227 230 232
276 277 278 279 279 280 279 279 277 276 275 275 273 270 267 266 265 266 267 267 268 269 268 269 270 272 274 275 277 279 281 282 281 279 276 275 273 271 270 269 269 269 268 268 268 268 267 265 263 262 260 257 254 250 247 242 238 234 232 233 235 236 236 236 235 234 234 235 236 237 237 236 234 232 231 231 232 232 229 225 221 221 222 225 228 231
276 278 278 279 279 278 278 279 278 276 274 273 271 269 267 266 266 266 266 266 267 268 268 269 271 273 274 275 277 278 279 281 280 278 276 274 273 272 270 269 269 269 269 268 268 268 267 266 263 262 260 257 254 250 246 243 239 234 231 232 233 235 236 235 234 234 234 234 235 236 236 236 236 235 235 236 236 236 235 233 229 226 225 226 227 229
275 277 278 279 278 277 276 278 278 276 272 270 269 268 267 266 266 266 266 266 266 267 267 269 270 272 273 275 276 277 278 279 278 277 276 274 273 272 270 269 268 268 269 268 268 268 267 266 264 262 260 258 254 251 247 244 240 235 231 231 232 234 235 234 233 233 233 234 235 235 236 235 235 236 236 237 237 237 237 236 234 233 231 231 231 232
273 274 276 278 278 277 276 276 275 273 271 269 268 267 267 266 266 266 266 266 266 267 268 269 270 271 272 273 274 276 277 277 276 276 275 275 274 272 271 269 269 268 268 268 268 267 266 266 264 263 261 258 255 252 249 245 240 236 232 231 233 234 235 234 233 232 233 234 234 235 235 235 234 235 236 237 237 237 237 236 236 235 235 235 235 235
273 273 275 276 275 275 275 274 272 270 270 270 269 268 267 267 267 267 267 267 268 268 269 270 271 271 271 272 273 275 276 276 275 275 275 275 274 273 272 270 269 268 268 268 267 266 265 265 264 263 261 259 256 253 250 247 242 237 233 233 234 235 235 234 232 232 232 233 234 234 234 234 234 234 235 236 237 237 237 237 237 237 237 237 237 236
273 273 273 273 272 272 272 271 270 270 270 270 270 270 269 269 269 269 270 271 271 271 271 272 272 272 272 272 273 275 275 275 275 275 274 274 275 274 273 272 271 270 269 269 268 266 265 264 263 262 261 259 257 254 251 248 244 240 236 235 235 236 236 234 233 232 231 232 232 233 233 233 233 233 234 235 236 237 237 238 238 238 238 237 236 235
271 272 271 271 271 271 271 270 270 271 269 269 269 269 270 270 270 271 272 273 274 273 273 273 273 273 273 273 274 275 275 275 276 276 276 276 277 277 277 277 276 274 272 271 269 267 265 263 262 261 260 259 257 254 251 249 246 243 240 237 236 236 236 235 234 232 232 231 231 231 231 230 230 230 230 231 232 233 234 235 236 236 235 234 233 231
268 269 270 270 270 270 269 269 269 269 267 266 266 266 266 267 268 269 270 271 272 272 272 272 272 273 274 275 275 275 276 276 276 277 277 278 278 280 281 281 281 280 278 275 272 269 267 264 261 260 259 257 256 254 252 249 246 244 242 239 238 237 237 236 235 233 232 232 231 231 230 229 228 227 227 227 227 228 229 229 230 230 230 229 228 228
267 267 268 269 269 267 267 267 268 268 267 265 265 265 265 265 265 266 267 267 268 269 270 270 271 272 274 275 276 276 276 277 278 278 279 279 279 280 281 282 283 283 282 280 277 274 270 266 262 259 258 256 254 253 251 249 247 244 242 241 240 239 238 236 235 234 233 233 232 232 230 229 228 227 227 226 226 226 225 225 226 226 226 225 225 225
266 266 267 267 267 266 265 265 267 268 267 265 264 264 264 264 263 263 264 265 266 267 267 267 268 270 271 273 274 275 275 276 278 279 280 280 280 280 281 281 283 284 284 283 281 277 274 270 266 261 257 254 253 251 249 247 246 244 242 241 240 240 240 238 236 234 233 233 233 233 232 231 230 229 229 229 228 228 227 226 225 225 225 224 224 224
264 265 265 265 265 265 264 264 266 266 265 263 261 260 261 262 263 262 262 263 264 266 266 266 266 266 267 269 271 272 272 272 274 277 279 281 281 281 281 282 283 284 285 285 284 281 279 275 270 265 259 255 251 249 247 245 243 243 242 241 240 241 241 240 238 235 233 233 233 233 232 232 231 230 230 230 230 230 229 228 227 227 226 225 224 224
263 263 263 263 263 262 262 262 263 263 260 258 256 255 258 261 262 261 261 262 264 265 265 265 265 265 265 266 266 267 268 269 271 274 276 278 279 280 281 282 283 285 286 286 286 285 284 281 277 271 265 259 253 249 246 243 241 240 240 239 239 239 241 241 240 238 235 233 232 231 231 231 231 231 231 231 230 230 230 229 229 228 227 226 224 224
262 262 261 261 260 260 259 259 259 258 257 256 256 256 258 260 260 259 259 261 263 265 265 264 264 265 266 265 264 264 265 267 269 271 273 275 277 279 280 280 282 283 285 285 286 287 288 285 281 277 271 265 258 253 248 243 240 238 238 237 237 237 239 240 241 241 239 236 233 231 230 229 229 229 230 230 229 229 229 229 229 228 227 226 225 224
260 259 258 257 257 258 259 259 259 258 258 258 258 258 259 258 257 256 256 257 260 263 263 263 264 265 266 265 264 263 263 265 267 270 272 274 277 279 279 279 280 282 283 283 285 287 289 286 283 280 276 271 265 259 253 247 243 239 237 236 235 235 237 238 240 241 241 240 236 233 230 228 228 228 228 228 228 228 228 228 228 227 226 225 224 224
259 258 256 256 257 257 258 258 258 258 259 259 258 257 256 255 254 254 254 255 258 260 260 260 262 264 266 267 266 264 264 265 267 269 271 274 278 280 279 277 278 280 281 282 284 286 288 287 285 283 280 276 271 266 259 253 247 242 238 236 235 234 235 237 238 240 241 241 239 236 232 229 228 227 227 227 227 227 227 227 226 226 225 224 224 224
259 258 258 258 258 258 258 258 258 257 258 258 257 256 254 254 254 254 254 254 255 256 256 256 257 260 264 267 267 266 265 265 267 269 271 274 277 280 280 277 276 278 281 282 284 285 286 286 286 286 285 283 279 273 266 259 253 247 242 238 235 234 234 235 236 238 240 240 240 238 235 231 229 228 227 227 227 226 226 225 225 224 223 223 223 224
259 258 257 257 258 259 259 258 258 257 257 257 256 256 256 255 255 254 253 252 252 252 253 254 254 256 260 262 264 265 265 264 265 267 269 271 275 279 280 277 277 278 280 282 283 284 285 285 286 288 289 289 287 281 274 265 258 251 245 240 236 234 233 233 235 236 237 237 237 237 235 233 231 229 228 228 227 226 225 224 223 222 222 222 222 223
263 260 258 257 258 259 259 258 257 257 256 256 257 257 257 256 256 254 253 252 251 251 252 253 254 255 257 259 263 266 265 263 263 263 263 266 272 276 278 276 276 277 279 281 283 284 285 286 287 289 290 291 291 288 283 276 267 257 249 242 237 234 233 233 234 235 235 234 234 235 234 232 230 228 228 227 226 226 224 223 222 221 221 220 221 222
275 271 266 262 261 260 258 258 258 258 258 259 260 259 258 258 257 255 253 253 253 253 253 253 254 255 257 259 262 265 264 262 260 260 260 263 268 272 274 274 274 275 277 280 283 284 285 286 287 289 290 291 291 291 289 286 279 269 258 247 240 235 233 233 235 236 234 232 231 232 232 230 228 226 225 224 224 223 222 221 220 220 220 220 220 222
279 278 276 274 270 265 262 262 263 263 262 262 261 259 259 258 257 256 255 256 255 255 255 253 254 256 258 259 261 263 262 259 257 258 260 262 265 269 271 272 272 273 275 279 282 284 284 285 287 289 290 291 291 291 291 290 288 282 271 258 246 239 234 234 235 235 233 230 230 231 232 229 226 223 222 221 220 219 218 218 218 218 219 219 221 222
276 277 278 278 277 275 274 274 274 273 271 267 263 260 259 258 257 256 258 258 257 256 255 255 256 259 260 260 261 262 262 258 256 257 260 261 263 267 271 271 271 272 274 277 281 282 283 284 286 288 290 291 291 292 291 291 290 289 284 273 259 247 239 235 234 234 232 229 229 230 231 228 224 222 220 219 217 216 216 216 217 218 219 220 222 223
276 276 276 277 277 278 278 279 280 280 278 274 270 268 268 266 264 263 262 261 260 259 259 260 261 262 261 261 261 261 261 258 257 257 258 259 262 267 270 270 268 269 271 275 278 280 281 282 284 286 288 290 291 291 291 291 290 290 288 282 270 257 246 239 235 233 231 229 229 230 230 227 223 221 219 218 217 216 216 217 218 219 220 222 223 224
279 278 278 278 278 278 279 280 280 280 279 278 277 276 276 275 274 272 270 267 265 262 262 262 261 261 260 260 260 260 260 259 257 257 257 259 262 266 268 267 265 266 269 273 275 277 278 280 282 284 287 288 290 291 291 291 290 289 286 279 272 263 255 245 238 233 230 229 229 230 230 228 224 221 219 218 218 218 218 218 219 221 222 222 223 223
281 281 281 281 281 282 281 281 280 279 278 278 278 278 278 277 276 275 273 269 265 262 260 259 258 257 259 260 260 260 261 260 258 256 256 257 261 264 266 264 262 263 267 271 273 275 275 277 280 282 285 288 290 291 291 291 291 289 284 278 271 265 259 251 242 235 230 229 229 231 231 230 227 224 222 220 219 218 218 219 219 220 221 222 223 223
280 280 281 282 283 283 282 279 277 276 275 276 277 277 277 276 274 271 267 263 260 258 256 254 254 256 258 258 258 258 259 259 257 255 256 256 259 263 265 264 261 261 265 269 271 272 273 275 278 281 284 286 289 291 292 292 292 291 288 280 272 266 261 255 247 239 232 229 229 230 232 232 230 228 226 224 222 221 220 219 219 220 221 221 223 224
276 275 275 277 278 278 277 275 273 271 269 269 270 272 272 271 268 264 260 258 257 255 252 250 251 254 255 255 254 255 256 256 254 253 254 256 258 261 264 264 262 260 262 265 268 270 271 274 277 279 282 285 288 291 293 294 294 293 291 283 274 267 262 257 251 244 237 232 230 230 232 233 232 231 229 227 225 224 222 221 221 221 221 222 223 225
277 275 274 273 273 273 273 272 270 269 267 264 263 263 263 261 258 255 255 258 257 253 249 248 249 251 252 252 253 254 254 252 251 251 252 253 255 258 263 264 262 259 260 263 266 268 269 271 274 277 280 284 287 291 294 296 296 295 293 287 278 269 263 257 253 248 242 236 233 232 232 233 233 233 232 230 229 227 226 225 224 224 224 225 227 230
281 279 279 277 276 274 273 272 271 269 267 265 263 260 257 255 252 253 256 258 256 251 248 249 249 250 251 252 253 253 252 250 250 250 251 251 253 257 263 263 261 258 258 260 263 266 268 270 274 277 281 283 286 289 293 296 297 297 296 292 284 274 266 259 253 248 244 240 236 234 233 233 234 234 234 233 232 230 229 229 228 228 229 231 234 236
283 283 283 283 283 281 279 277 276 274 272 268 265 261 257 255 254 255 257 256 253 249 248 249 251 251 251 251 251 251 250 250 249 249 249 249 252 256 261 260 258 256 255 256 259 263 267 271 275 279 283 285 286 288 291 294 297 298 299 297 292 284 275 265 257 250 244 240 237 236 234 234 234 235 235 235 234 234 233 233 233 234 235 237 239 239
280 281 282 284 286 285 284 282 281 280 278 275 271 265 259 256 256 256 256 254 252 249 249 250 251 251 250 247 245 246 249 251 250 248 247 248 251 256 258 256 255 255 253 251 251 256 265 271 275 278 283 285 286 287 289 292 294 297 299 299 297 293 286 276 264 254 246 240 236 234 233 234 234 235 235 235 235 235 235 235 235 236 237 238 237 235
277 276 276 278 280 281 280 280 280 280 280 279 277 273 268 261 258 257 256 255 254 253 252 251 250 249 248 246 245 246 249 253 251 247 246 247 251 255 257 255 253 253 252 250 248 250 256 264 270 273 276 279 282 285 287 288 289 292 294 296 297 297 295 287 274 262 250 241 235 231 231 232 233 233 234 234 234 234 233 233 233 233 233 232 230 227
280 276 274 273 273 273 273 274 275 276 276 277 278 277 276 271 266 260 257 256 256 256 255 253 251 249 247 247 248 249 251 253 252 248 246 248 251 253 256 254 252 251 251 250 249 249 251 255 261 266 268 271 275 280 282 283 283 284 287 290 293 296 298 294 284 271 256 244 235 230 227 227 228 229 231 232 232 231 231 230 229 228 226 224 221 216
285 283 279 275 271 268 267 267 269 270 272 274 275 277 278 277 273 267 261 258 257 257 257 256 254 252 249 247 248 250 252 253 252 249 246 248 250 252 253 252 251 249 248 247 247 248 249 252 256 259 262 266 270 273 276 277 277 277 280 283 287 291 294 294 289 278 263 248 236 229 225 222 222 224 229 230 229 227 226 226 224 221 219 217 213 210
286 285 284 281 275 270 265 263 264 266 268 270 273 275 276 276 275 272 268 264 262 261 261 260 259 257 254 251 249 250 252 255 255 251 247 247 250 252 252 251 249 247 245 245 245 245 247 250 253 255 257 261 265 268 270 272 271 272 274 276 280 283 286 288 286 278 265 249 237 228 223 220 220 222 226 227 224 220 218 217 215 213 212 212 211 211
287 286 285 282 278 272 265 262 261 262 264 267 269 272 273 273 273 272 271 270 269 268 268 267 265 263 260 257 255 254 255 257 257 253 248 248 250 251 251 249 248 246 244 243 244 244 245 248 251 253 254 256 258 262 265 266 267 266 267 269 272 276 279 281 279 273 262 247 235 227 223 221 221 222 224 223 218 214 210 209 208 207 208 210 213 215
287 286 285 282 278 272 267 264 261 261 261 263 266 268 270 271 271 272 272 273 273 273 273 271 270 268 266 263 261 260 260 259 257 253 250 250 251 252 251 252 251 249 244 243 243 244 245 246 249 251 250 250 252 256 258 259 260 259 258 260 264 268 272 274 273 267 256 243 232 226 224 222 222 222 223 221 218 214 211 210 209 210 211 214 217 220
283 283 283 281 278 274 270 267 264 263 263 263 265 267 269 270 271 272 273 274 274 274 274 273 272 271 270 268 267 265 264 260 257 253 251 251 252 253 252 253 252 249 246 245 245 245 245 244 245 246 248 250 252 253 253 253 252 252 252 256 260 264 266 268 267 262 254 242 232 226 224 223 223 223 223 222 220 218 217 216 217 217 219 220 223 226
280 279 280 279 278 274 271 268 266 265 265 266 267 269 270 271 272 272 272 272 273 273 273 273 273 273 273 272 270 269 266 262 258 255 252 250 251 252 253 252 251 250 250 248 247 245 244 243 243 244 246 250 252 252 251 249 248 248 250 253 256 259 260 261 261 258 252 243 233 227 224 223 222 222 222 222 221 220 220 220 220 222 223 224 226 228
279 278 278 278 277 274 270 267 266 266 266 267 268 269 270 270 270 270 270 270 271 272 272 272 273 273 273 272 271 269 267 265 261 257 253 251 251 251 252 252 252 252 251 250 247 245 244 243 244 246 249 249 250 251 249 246 245 245 246 245 246 249 253 256 256 255 252 244 235 228 225 223 222 221 221 220 220 220 219 219 219 220 221 222 223 224
280 280 279 278 276 274 271 269 267 266 266 266 266 266 266 267 267 267 268 269 269 270 270 271 270 271 271 270 269 268 267 265 262 259 256 253 252 252 253 253 254 254 252 250 248 247 246 244 245 246 248 249 250 251 249 246 245 244 244 241 242 245 250 253 254 253 251 246 238 231 225 223 221 221 221 220 219 219 219 218 218 218 218 218 218 219
282 281 280 279 277 275 274 273 272 270 268 266 265 264 264 265 265 265 265 265 265 266 266 266 266 266 265 265 265 265 265 264 263 261 259 257 255 254 254 255 255 255 253 251 249 248 248 247 247 247 248 248 249 249 248 248 246 244 242 241 242 244 246 247 249 250 248 246 240 233 225 222 220 220 220 220 220 220 220 219 219 218 218 219 219 220
280 280 280 279 278 276 275 275 274 273 270 268 265 264 264 264 265 265 264 263 262 263 263 264 264 264 262 262 262 263 264 264 264 263 261 259 258 257 256 256 256 255 254 251 249 249 249 249 248 248 249 249 248 248 247 248 246 243 241 241 240 237 233 236 242 246 247 246 241 234 227 222 220 219 219 219 220 221 221 221 221 221 221 221 222 223
280 280 280 280 279 277 276 275 274 273 271 268 266 265 265 265 265 265 263 262 261 261 261 262 262 262 261 260 259 260 261 263 264 264 262 261 261 259 258 257 256 254 253 251 248 247 248 247 248 249 249 249 247 246 247 247 245 243 241 240 238 236 233 235 239 243 244 245 242 237 230 224 220 218 217 217 218 219 221 222 223 223 224 225 227 228
282 282 283 284 284 282 280 278 276 274 272 270 268 268 268 267 266 265 263 260 259 258 257 258 257 256 254 255 256 257 257 259 261 262 262 262 262 261 259 257 255 253 251 250 248 247 246 245 246 247 248 247 246 245 245 245 244 242 241 239 238 237 238 239 239 239 240 242 242 239 234 228 222 218 216 216 217 219 221 223 225 226 228 229 231 232
285 286 287 288 288 288 287 285 283 280 278 275 273 271 270 269 266 264 261 258 256 254 254 255 253 250 249 251 252 253 252 253 255 257 259 261 262 261 259 257 255 253 252 250 249 247 246 245 245 245 245 245 245 245 244 244 243 242 242 241 239 237 236 235 234 235 236 239 240 240 237 232 225 220 217 218 219 222 224 227 229 230 232 233 235 236
289 288 288 288 288 288 288 288 288 286 283 281 278 276 273 269 265 261 258 256 253 251 251 251 249 248 248 250 250 249 248 248 249 251 254 257 259 261 261 259 257 255 253 252 250 249 248 247 246 244 243 242 242 243 244 244 242 241 241 240 239 238 236 232 230 229 232 235 237 238 237 233 227 224 223 223 224 225 227 230 233 235 236 237 237 239
292 291 290 290 289 288 288 288 287 286 285 283 282 280 276 271 266 260 256 253 251 249 247 246 245 245 247 248 249 248 248 247 246 247 249 252 255 258 260 261 260 258 256 255 253 252 251 249 247 245 244 242 242 242 243 243 242 241 241 240 239 237 236 233 230 227 227 229 232 234 234 231 228 227 227 226 226 228 230 232 235 237 238 239 239 240
293 293 294 294 294 292 290 288 287 285 284 283 283 282 280 276 270 263 256 253 250 247 245 244 243 244 245 246 248 248 248 247 246 245 245 247 249 252 255 257 258 258 257 256 255 255 254 253 251 249 246 244 243 243 243 243 243 243 242 240 238 236 234 233 231 228 225 225 226 229 231 233 233 233 231 228 227 228 231 234 236 238 240 241 241 242
294 295 295 295 295 292 290 289 287 286 285 283 282 282 282 280 274 266 258 252 249 247 246 246 245 244 244 246 247 247 246 245 244 243 242 243 244 246 248 251 252 251 250 249 249 249 250 251 252 252 250 247 245 244 244 244 244 244 243 241 237 234 232 231 231 229 226 224 224 225 227 230 233 234 232 229 228 229 232 235 237 240 243 244 244 244
294 295 295 294 292 291 290 289 289 287 285 283 282 282 283 282 277 268 258 250 246 246 247 248 248 246 246 246 247 247 246 245 243 242 241 241 240 240 242 244 244 241 239 237 238 238 239 242 245 248 249 249 247 245 244 243 243 243 242 240 238 234 232 230 230 228 226 225 224 225 225 226 227 227 228 228 228 229 231 234 237 240 243 245 245 245